This demonstration page uses our WeatherBlox Daily Observations layout. Learn more.

Left ArrowRight Arrow

36.17497, -115.13722

Hourly Observations for June 10, 2021

Temp ( °F °C ) Dew Point ( °F °C ) Humidity (%) Winds ( mph kmh ) Pressure ( in mb ) Visibility ( mi km ) Precip ( " mm )
12:53 am 00:53 Clear 78 25.6 27 -2.8 15 15 S 12 19 29.83 1010 10 16 N/A
1:53 am 01:53 Clear 75 23.9 26 -3.3 16 16 WSW 22 35 29.83 1010 10 16 N/A
2:53 am 02:53 Clear 74 23.3 25 -3.9 16 16 SW 17 28 29.83 1010 10 16 N/A
3:53 am 03:53 Clear 71 21.7 28 -2.2 20 20 SSW 22 35 29.85 1011 10 16 N/A
4:53 am 04:53 Clear 69 20.6 28 -2.2 22 22 SSE 17 28 29.86 1011 10 16 N/A
5:53 am 05:53 Sunny 68 20 26 -3.3 21 21 SSE 24 39 29.85 1011 10 16 N/A
6:53 am 06:53 Sunny 70 21.1 23 -5 17 17 SSW 10 17 29.90 1013 10 16 N/A
7:53 am 07:53 Sunny 74 23.3 19 -7.2 12 12 NNW 17 28 29.92 1013 10 16 N/A
8:53 am 08:53 Sunny 75 23.9 20 -6.7 12 12 NW 26 43 29.93 1014 10 16 N/A
9:53 am 09:53 Sunny 77 25 18 -7.8 11 11 NW 23 37 29.94 1014 10 16 N/A
10:53 am 10:53 Sunny 80 26.7 17 -8.3 9 9 NNW 18 30 29.96 1015 10 16 N/A
11:53 am 11:53 Sunny 82 27.8 14 -10 8 8 NNW 17 28 29.96 1015 10 16 N/A
12:53 pm 12:53 Sunny 84 28.9 12 -11.1 6 6 NW 10 17 29.95 1014 10 16 N/A
1:53 pm 13:53 Sunny 85 29.4 11 -11.7 6 6 NNW 3 6 29.93 1014 10 16 N/A
2:53 pm 14:53 Sunny 88 31.1 10 -12.2 5 5 N 8 13 29.90 1013 10 16 N/A
3:53 pm 15:53 Sunny 88 31.1 6 -14.4 4 4 NNW 13 20 29.89 1012 10 16 N/A
4:53 pm 16:53 Sunny 88 31.1 2 -16.7 4 4 undefined N/A 29.87 1012 10 16 N/A
5:53 pm 17:53 Sunny 90 32.2 2 -16.7 3 3 undefined N/A 29.85 1011 10 16 N/A
6:53 pm 18:53 Sunny 89 31.7 N/A 3 3 NW 10 17 29.85 1011 10 16 N/A
7:53 pm 19:53 Partly Cloudy 87 30.6 -2 -18.9 3 3 WNW 6 9 29.85 1011 10 16 N/A
8:53 pm 20:53 Clear 84 28.9 2 -16.7 4 4 NW 3 6 29.86 1011 10 16 N/A
9:53 pm 21:53 Clear 80 26.7 7 -13.9 6 6 NNW 7 11 29.87 1012 10 16 N/A
10:53 pm 22:53 Clear 76 24.4 4 -15.6 6 6 WNW 8 13 29.88 1012 10 16 N/A
11:53 pm 23:53 Clear 75 23.9 -1 -18.3 5 5 NNW 10 17 29.87 1012 10 16 N/A

Powered by AerisWeather